www.pogodaiklimat.ru

Погода и климат >> Архив погоды >> Италия >> Капо Карбонара


ПОГОДА на Капо Карбонара

  • Прогноз погоды на Капо Карбонара
  • Монитор погоды на Капо Карбонара

АРХИВ ПОГОДЫ на Капо Карбонара

Время (UTC), дата Ветер
(напр.,м/с)
 
Видим.   Явления Облачность Т
(С)
Тd
(С)
f
(%)
Тe
(С)
Тes
(С)
Комфортность P
(гПа)
Po
(гПа)
Тmin
(С)
Tmax
(С)
R
(мм)
R24
(мм)
S
(см)
12 12.02 С 9 20 км ясно +15.0 +8.7 66 +13 +14 1025.6 1011.4
15 12.02 В 10 20 км ясно +15.0 +8.5 65 +13 +13 1025.6 1011.4
18 12.02 штиль 0 20 км ясно +13.0 +7.6 70 +13 +13 1026.3 1012.0 +16.0
21 12.02 З 13 20 км ясно +10.0 +7.9 87 +5 +5 1027.7 1013.2
00 13.02 З 8 20 км ясно +11.0 +5.4 68 +8 +8 1032.1 1017.6
03 13.02 СЗ 3 20 км ясно +10.6 +2.7 58 +9 +9 1029.0 1014.5
06 13.02 С 8 20 км ясно +11.0 -3.9 35 +8 +8 1030.0 1015.5 +10.4
09 13.02 В 3 20 км ясно +11.8 +5.9 67 +10 +14 1031.6 1017.2
12 13.02 З 9 20 км ясно +15.2 +10.8 75 +13 +14 1031.7 1017.4
15 13.02 СВ 9 20 км ясно +15.0 +11.5 80 +13 +13 1031.2 1017.0
18 13.02 СВ 15 20 км ясно +11.0 +8.9 87 +6 +6 1032.0 1017.5 +16.8
21 13.02 С 4 20 км ясно +11.8 +7.1 73 +10 +10 1032.6 1018.1
00 14.02 СВ 7 20 км ясно +11.2 +5.5 68 +8 +8 1032.5 1018.0
03 14.02 С 11 20 км ясно +11.2 +3.7 60 +7 +7 1032.1 1017.6
06 14.02 СВ 18 20 км 1/1 600 м
[Sc diur, vesp]
+10.6 +6.5 76 +5 +5 1032.4 1017.9 +10.6
09 14.02 СВ 20 20 км 3/3 600 м
[Sc diur, vesp]
+12.2 +9.0 81 +7 +7 1033.1 1018.7
12 14.02 В 16 20 км ясно +14.2 +10.4 78 +11 +11 1033.0 1018.7
15 14.02 З 2 20 км ясно +14.8 +10.4 75 +15 +17 1032.3 1018.0
18 14.02 СВ 3 20 км ясно +11.6 +7.9 78 +10 +10 1032.3 1017.9 +16.8
21 14.02 З 9 20 км ясно +11.6 +10.1 91 +8 +8 1031.9 1017.5
00 15.02 З 7 10 км ясно +11.2 +8.0 81 +8 +8 1031.0 1016.6
03 15.02 СЗ 2 10 км ясно +12.4 +6.0 65 +12 +12 1030.2 1015.8
06 15.02 В 8 20 км ясно +10.8 +7.5 80 +7 +7 1030.1 1015.6 +10.0
09 15.02 З 5 20 км ясно +11.6 +7.9 78 +9 +12 1029.8 1015.3
12 15.02 З 7 20 км ясно +15.2 +10.6 74 +13 +16 1028.6 1014.4
15 15.02 З 3 20 км ясно +17.0 +12.1 73 +17 +19 1027.0 1012.9
18 15.02 ЮЗ 8 20 км ясно +13.0 +11.1 88 +10 +10 1026.7 1012.4 +17.8
21 15.02 С 2 20 км ясно +13.8 +4.7 54 +13 +13 1027.1 1012.8
00 16.02 СВ 14 20 км ясно +13.2 +7.6 69 +10 +10 1027.2 1012.9
03 16.02 СВ 10 20 км ясно +12.4 +9.4 82 +9 +9 1027.2 1012.8
06 16.02 В 6 20 км 4/4 600 м
[Cu med, cong]
+12.2 +10.4 89 +9 +9 1028.2 1013.9 +11.8
09 16.02 ЮВ 5 20 км 4/4 600 м
[Cu hum]
+13.8 +10.2 79 +12 +14 1029.6 1015.3
12 16.02 Ю 7 20 км 3/3 700 м
[Cu hum]
+17.4 +11.2 67 +16 +18 1030.0 1015.9
15 16.02 Ю 7 20 км 1/1 660 м
[Cu hum]
+17.2 +11.1 67 +16 +17 1029.5 1015.3
18 16.02 Ю 7 20 км ясно +12.4 +9.0 80 +10 +10 1029.9 1015.6 +17.6
21 16.02 ЮЗ 7 20 км 3/1 750 м
[Cu med, cong Ac trans]
+12.2 +10.4 89 +9 +9 1030.2 1015.8
00 17.02 З 7 20 км ясно +11.8 +9.9 88 +9 +9 1030.1 1015.6
03 17.02 З 5 20 км ясно +11.2 +8.3 82 +8 +8 1029.5 1015.1
06 17.02 СЗ 3 20 км ясно +11.2 +8.7 85 +9 +9 1029.8 1015.3 +11.2
09 17.02 В 9 20 км 1/1 750 м
[Cu hum]
+12.8 +10.2 84 +10 +10 1030.0 1015.6
12 17.02 Ю 8 20 км 3/3 750 м
[Sc]
+15.8 +9.9 68 +14 +15 1029.8 1015.6
15 17.02 Ю 8 20 км ясно +16.0 +9.9 67 +14 +15 1028.2 1014.0
18 17.02 ЮВ 7 20 км ясно +12.0 +9.0 82 +9 +9 1027.5 1013.1 +16.0
21 17.02 Ю 7 20 км ясно +11.2 +8.8 85 +8 +8 1027.6 1013.2
00 18.02 В 4 20 км ясно +10.6 +9.0 90 +8 +8 1027.5 1013.0
03 18.02 В 5 20 км ясно +10.6 +8.1 85 +8 +8 1026.6 1012.1
06 18.02 СВ 11 20 км 4/4 750 м
[Sc diur, vesp]
+10.8 +9.2 90 +6 +6 1025.6 1011.2 +10.6
09 18.02 В 13 20 км 8/8 600 м
[Sc diur, vesp]
+12.0 +8.5 79 +8 +8 1026.2 1011.8
12 18.02 В 13 20 км 4/4 600 м
[Cu med, cong]
+16.2 +12.2 77 +14 +14 1025.3 1011.1
15 18.02 В 13 20 км 4/4 600 м
[Cu med, cong]
+15.8 +10.8 72 +13 +13 1023.7 1009.6
18 18.02 В 12 20 км 4/4 600 м
[Cu med, cong]
+11.8 +9.5 86 +8 +8 1023.8 1009.5 +16.8
21 18.02 В 13 20 км 3/3 600 м
[Cu med, cong]
+11.8 +9.5 86 +7 +7 1023.8 1009.5
00 19.02 В 11 20 км 3/3 600 м
[Cu hum]
+11.6 +9.2 85 +8 +8 1023.5 1009.2
03 19.02 В 12 20 км 3/3 600 м
[Cu med, cong]
+11.6 +9.5 87 +7 +7 1022.0 1007.7
06 19.02 В 12 10 км 5/5 600 м
[Cu med, cong]
+11.8 +9.2 84 +8 +8 1022.0 1007.7 +11.6

 

Местоположение метеостанции Капо Карбонара (Италия): широта 39.10 долгота 9.52 высота над уровнем моря 118 м.

В архиве по умолчанию представлена погода на Капо Карбонара за последнюю неделю. Архивные данные за месяц целиком и за предыдущие месяцы, начиная с января 2011 года, Вы можете получить, выбрав интересующий диапазон дат из раскрывающегося списка и нажав кнопку "Ввод!".


*Определитесь, кто Вы:
робот инопланетянин человек

Внимание! Время в таблицах - всемирное. Для получения местного времени необходимо прибавить поправку, которая равна 1 ч.

Смотрите также архив погоды в соседних городах и на ближайших метеорологических станциях:

Погода в Дечимоманну (Италия) (55 км)
Погода на Капо Беллависто (Италия) (94 км)
Погода на Капо Фраска (Италия) (116 км)
Погода на Капо Кацция (Италия) (200 км)
Погода в Ольвии (Италия) (200 км)
Погода в Альгеро (Италия) (200 км)
Погода в Бизерте (Тунис) (207 км)
Погода в Табарке (Тунис) (248 км)
Погода на Мысе Пертюзато (Франция) (254 км)
Погода в Тунисе (Тунис) (260 км)

Пояснения к столбцам:

Ветер - указаны скорость ветра в м/с - средняя за 10 мин, порывы в срок и между сроками (в фигурных скобках) и направление, откуда дует ветер: С - северный, СВ - северо-восточный, В - восточный, ЮВ - юго-восточный, Ю - южный, ЮЗ - юго-западный, З - западный, СЗ - северо-западный.
Видимость - горизонтальная дальность видимости в метрах или километрах. При видимости от 1 до 10 км при отсутствии осадков обычно наблюдается дымка, при ухудшении видимости до 1 км и менее - туман. В сухую погоду видимость может ухудшаться дымом, пылью или мглою.
Явления - указаны атмосферные явления, наблюдавшиеся в срок или в последний час перед сроком; фигурными скобками обозначены явления, наблюдавшиеся между сроками (за 1-3 часа до срока); квадратными скобками обозначены град или гололедные отложения с указанием их диаметра в мм.
Облачность - указаны через наклонную черту общая и нижняя облачность в баллах и высота нижней границы облаков в метрах; квадратными скобками обозначены формы облаков: Ci - перистые, Cs - перисто-слоистые, Cc - перисто-кучевые, Ac - высококучевые, As - высокослоистые, Sc - слоисто-кучевые, Ns - слоисто-дождевые, Cu - кучевые, Cb - кучево-дождевые. Подробнее классификацию облаков см. в Атласе облаков (PDF).
T - Температура воздуха - температура, измеренная на высоте 2 м над землей.
Td - Температура точки росы - температура, при понижении до которой содержащийся в воздухе водяной пар достигнет насыщения.
f - Относительная влажность воздуха - влажноcть воздуха, измеренная на высоте 2 м над землей.
Te - Эффективная температура - температура, которую ощущает одетый по сезону человек в тени. Характеристика душности погоды. При расчете учитывается влияние влажности воздуха и скорости ветра на теплоощущения человека.
Tes - Эффективная температура на солнце - температура, которую ощущает человек, с поправкой на солнечный нагрев. Характеристика знойности погоды. Зависит от высоты солнца над горизонтом, облачности и скорости ветра. Ночью, в пасмурную погоду, а также при ветре 12 м/с и более поправка равна нулю.
P - Атмосферное давление - приведенное к уровню моря атмосферное давление.
Po - Атмосферное давление - измеренное на уровне метеостанции атмосферное давление.
Tmin - Минимальная температура - минимум температуры воздуха на высоте 2 м над землей.
Tmax - Максимальная температура - максимум температуры воздуха на высоте 2 м над землей.
R - Количество осадков - Количество выпавших осадков за период времени, мм. При наведении курсора мыши на число - период времени, за который выпало указанное количество осадков.
R24 - Количество осадков - Количество выпавших осадков за 24 часа, мм.
S - Снежный покров - Высота снежного покрова, см. При наведении курсора мыши на число - состояние снежного покрова и степень покрытия местности в баллах.